Regional Weather Roundup
Issued by NWS Grand Forks, ND

Home | Current Version | Previous Version | Text Only | Print | Product List | Glossary Off
Versions: 1 2 3 4 5 6 7 8 9 10 11 12 13 14 15 16 17 18 19 20 21 22 23 24 25 26 27 28 29 30 31 32 33 34 35 36 37 38 39 40 41 42 43 44 45 46 47 48 49 50

000
ASUS43 KFGF 192131
RWRFGF
PRAIRIE TO PINES  WEATHER ROUNDUP
NATIONAL WEATHER SERVICE EASTERN NORTH DAKOTA/GRAND FORKS ND
400 PM CDT SUN OCT 19 2014

 **SATELLITE DATA USED TO AUGMENT SKY COVER AT AUTOMATED STATIONS**
 *****  WEATHER ACROSS EASTERN NORTH DAKOTA  *****

CITY           SKY/WX    TMP DP  RH WIND       PRES   REMARKS
GRAND FORKS    MOSUNNY   67  43  41 N14       29.82S
GRAND FRKS AFB SUNNY     67  42  39 N13G25    29.84R
GRAND FRKS NWS   N/A     64 N/A N/A N9          N/A
DEVILS LAKE    SUNNY     66  39  37 NW13      29.86F
FARGO          SUNNY     70  40  33 NW18      29.82R
WAHPETON ARPT    N/A    N/A N/A N/A MISG      29.82R
$$

 ***** WEATHER ACROSS CENTRAL AND WESTERN NORTH DAKOTA  *****

CITY           SKY/WX    TMP DP  RH WIND       PRES   REMARKS
BISMARCK       SUNNY     72  39  30 NW17      29.95R
MINOT          SUNNY     69  35  28 NW12      29.93S
JAMESTOWN      SUNNY     69  39  33 NW21G29   29.88R
MINOT AFB      SUNNY     68  38  33 NW15      29.92S
GARRISON         N/A     70  36  28 NW16      29.95S
WILLISTON      SUNNY     70  37  29 VRB3      29.98F
DICKINSON      SUNNY     70  40  33 N8        29.99S
HETTINGER      SUNNY     71  35  26 N14G22    30.01S
$$

 *****  OTHER AIRPORT OBSERVATIONS IN OUR AREA  *****

CITY           SKY/WX    TMP DP  RH WIND       PRES   REMARKS
WALHALLA         N/A     66  39  37 NW18G24   29.83S
GRAFTON AIRPOR FAIR      66  41  39 N15G23    29.83R
VALLEY CITY AR FAIR      68  39  34 N15G25    29.87R
CANDO          FAIR      68  37  32 NW16      29.88S
CAVALIER APRT  FAIR      66  41  39 NW14      29.83R
GWINNER        CLEAR     72  41  33 NW21      29.87R
ROLLA          FAIR      64  36  34 NW20G25   29.90R
 ***** THE ABOVE OBSERVATIONS ARE NON NWS ARE NOT QUALITY
       CONTROLLED AND MAY MIS-REPORT RAIN FOR SNOW...
$$

  *****  WEATHER ACROSS NORTHERN MINNESOTA  *****

CITY           SKY/WX    TMP DP  RH WIND       PRES   REMARKS
FLAG ISLAND    SUNNY     55  43  62 NW18      29.75R
WARROAD        SUNNY     61  46  59 NW14G23   29.78R
ROSEAU         MOSUNNY   64  45  48 NW17G25   29.79R
HALLOCK        SUNNY     64  43  45 NW13      29.81S
THF RVR FALLS  SUNNY     63  45  51 NW20      29.82R
BAUDETTE       SUNNY     59  43  55 NW15G23   29.75R
WASKISH        SUNNY     59  46  63 W8        29.76R
CROOKSTON      SUNNY     64  45  48 NW17      29.83S
STEPHEN NDAWN    N/A     64  45  48 N14         N/A
GREENBUSH NDAW   N/A     63  43  48 NW14        N/A
$$
  *****  WEATHER ACROSS CENTRAL AND WEST MINNESOTA  *****

CITY           SKY/WX    TMP DP  RH WIND       PRES   REMARKS
FOSSTON        SUNNY     63  41  45 NW20G25   29.82S
BEMIDJI        SUNNY     60  43  52 W21G30    29.78R
PARK RAPIDS    SUNNY     64  40  41 W21G29    29.77R
ELBOW LAKE     FAIR      67  42  40 NW16G24   29.81S
WADENA         SUNNY     64  43  45 NW13G22   29.79S
DETROIT LAKES  SUNNY     64  41  42 NW16G25   29.83R
MOORHEAD       SUNNY     70  32  24 N20       29.83R
FERGUS FALLS   SUNNY     70  36  28 NW21G28   29.81S
MORRIS MN      SUNNY     72  43  35 NW17      29.81S
STAPLES        SUNNY     64  41  42 W13       29.77S
$$
  *****  WEATHER ELSEWHERE ACROSS MINNESOTA  *****

CITY           SKY/WX    TMP DP  RH WIND       PRES   REMARKS
DULUTH         MOSUNNY   63  42  46 W13       29.70F
INTRNTL FALLS  CLOUDY    59  42  53 W13G23    29.72R
ELY            SUNNY     57  41  54 W9G16     29.69S
CLOQUET        SUNNY     63  43  48 W8        29.72R
WHEATON        SUNNY     70  39  32 NW18G24   29.83S
BRAINERD       SUNNY     65  43  44 W14       29.75S
HIBBING        SUNNY     64  41  42 W10G18    29.70S
ALEXANDRIA     SUNNY     67  42  40 NW20      29.81S
SAINT CLOUD    SUNNY     72  44  36 W15       29.76F
MINNEAPOLIS    MOSUNNY   67  44  43 SW7G17    29.79F
$$

  *****  WEATHER ACROSS SOUTH DAKOTA  *****

CITY           SKY/WX    TMP DP  RH WIND       PRES   REMARKS
SIOUX FALLS    SUNNY     74  44  34 NW13      29.88S
BROOKINGS      NOT AVBL
WATERTOWN      SUNNY     70  40  33 NW14      29.88R
HURON          SUNNY     78  36  21 N17G24    29.87F
SISSETON         N/A     73  39  29 N25G31    29.82S
ABERDEEN       SUNNY     76  40  27 NW17      29.88R
MITCHELL       SUNNY     79  40  24 NW17      29.89S
PIERRE         SUNNY     77  37  23 NW17      29.92F
MOBRIDGE       SUNNY     76  39  26 NW17      29.91R
RAPID CITY     SUNNY     73  40  30 N12       30.03S
$$

  *****  SOME WEATHER IN NEARBY STATES *****

CITY           SKY/WX    TMP DP  RH WIND       PRES   REMARKS
GLASGOW MT     SUNNY     67  42  40 VRB3      29.96F
GREAT FALLS MT SUNNY     73  33  23 SW17      29.91F
CHEYENNE WY    SUNNY     68  31  25 NE10      30.14S
SCOTTSBLUFF NE SUNNY     74  47  38 VRB3      30.05F
OMAHA NE       MOSUNNY   72  46  39 SW14      29.94F
DES MOINES IA  PTSUNNY   65  46  50 SW15      29.95F
DAVENPORT IA   CLOUDY    60  41  49 S15       30.00F
CHICAGO IL     CLOUDY    53  40  61 S13G21    30.04F
EAU CLAIRE WI  CLOUDY    62  44  51 SW15      29.80F
LA CROSSE WI   PTSUNNY   63  45  51 S13       29.85F
$$

  *****  SOME NATIONAL WEATHER *****

CITY           SKY/WX    TMP DP  RH WIND       PRES   REMARKS
LA GUARDIA NY  MOSUNNY   52  30  43 NW22G30   29.95R
RALEIGH NC     MOSUNNY   65  39  38 VRB3      30.07F
ATLANTA GA     MOSUNNY   70  44  39 CALM      30.07F
NEW ORLEANS LA MOSUNNY   76  56  49 NE10      30.05F
OKLAHOMA CITY  MOSUNNY   74  52  46 S14       30.06F
ALBUQUERQUE NM CLOUDY    64  45  49 S14       30.15F
SALT LAKE CITY MOSUNNY   72  36  26 NW8       30.05F
LOS ANGELES CA MOSUNNY   72  61  68 W13       29.87F
BOISE ID       SUNNY     75  33  21 E5        29.93F
SEATTLE WA     MOSUNNY   69  57  65 S12       29.74F
$$

*** WEATHER ACROSS MANITOBA...SASKATCHEWAN AND ONTARIO ***
                ***ONTARIO***

CITY           SKY/WX    TMP DP  RH WIND       PRES   REMARKS
GERALDTON      LGT RAIN  39  37  93 S7        29.76F
THUNDER BAY    CLOUDY    46  43  87 S3        29.72F
SIOUX LOOKOUT  LGT RAIN  43  41  93 W7        29.72R
TORONTO        CLOUDY    48  30  49 W10       30.05
BIG TROUT LK   MIX PCPN  34  32  93 E5        29.72S FOG
PICKLE LAKE    LGT RAIN  37  37 100 SW6       29.68S FOG
DRYDEN         CLOUDY    45  41  87 W6        29.73R
KENORA         MOSUNNY   54  43  66 NW10G20   29.74R
$$
                *** MANITOBA***

CITY           SKY/WX    TMP DP  RH WIND       PRES   REMARKS
BRANDON        MOSUNNY   66  39  37 NW24G30   29.87S
DAUPHIN        SUNNY     66  37  34 NW18G26   29.83
ISLAND LAKE    LGT RAIN  41  41 100 NW12      29.73R
PILOT MOUND      N/A     64  37  36 NW23G30     N/A
THE PAS        PTSUNNY   54  43  66 NW10      29.87R
THOMPSON       CLOUDY    39  39 100 NW10      29.83R
WINNIPEG       MOSUNNY   63  43  48 NW16      29.81R
LYNN LAKE      CLOUDY    37  36  93 N5        29.87R
CHURCHILL      CLOUDY    34  32  93 W3        29.82R
GILLAM         CLOUDY    34  32  93 NE7       29.80R FOG
$$
                ***SASKATCHEWAN***

CITY           SKY/WX    TMP DP  RH WIND       PRES   REMARKS
ESTEVAN        MOSUNNY   70  36  28 NW5       29.95S
KINDERSLEY     PTSUNNY   59  37  44 S12       29.87
LLOYDMINSTER   MOSUNNY   66  32  28 S12       29.79F
PRINCE ALBERT  MOSUNNY   64  39  39 CALM      29.87F
REGINA         MOSUNNY   70  39  32 SW8       29.93F
YORKTON        SUNNY     66  37  34 W17       29.89S
N. BATTLEFORD  SUNNY     72  36  26 SE10      29.85F
LA RONGE       MOSUNNY   55  41  58 NE7       29.87
SASKATOON      MOSUNNY   68  39  34 SE9       29.89F
SWIFT CURRENT  SUNNY     64  36  34 SW5       29.91F
$$
NOTE: THESE ARE AUTOMATED STATIONS WITH LIMITED QUALITY CONTROL
      "FAIR" INDICATES FEW OR NO CLOUDS BELOW 12,000 FEET WITH NO
      SIGNIFICANT WEATHER AND/OR OBSTRUCTIONS TO VISIBILITY.
      SKY/WX - SKY CONDITION AND SIGNIFICANT WEATHER.
      TMP - AIR TEMPERATURE.    DP   - DEWPOINT TEMPERATURE.
      RH  - RELATIVE HUMIDITY.  PRES - PRESSURE.
      HX  - HEAT INDEX.         WCI  - WIND CHILL INDEX.
$



USA.gov is the U.S. government's official web portal to all federal, state and local government web resources and services.